Sanford, ME

4:27 PM EST on November 23, 2017 (GMT -0500)
Sanford Regional

Weather History for KSFM - October, 2012

Change the Weather History Date:

Monday, October 29, 2012

  Actual Average Record
Temperature  
Mean Temperature 54 °F -  
Max Temperature 59 °F 52 °F 75 °F (2015)
Min Temperature 48 °F 31 °F 15 °F (2013)
Degree Days  
Heating Degree Days 12    
Growing Degree Days 4 (Base 50)    
Moisture  
Dew Point 51 °F    
Average Humidity 90    
Maximum Humidity 100    
Minimum Humidity 82    
Precipitation  
Precipitation 0.76 in - - ()
Sea Level Pressure  
Sea Level Pressure 29.61 in    
Wind  
Wind Speed 19 mph (ENE)    
Max Wind Speed 40 mph    
Max Gust Speed 53 mph    
Visibility 4 miles    
Events      
Averages and records for this station are not official NWS values.
T = Trace of Precipitation, MM = Missing Value Source: NWS Daily Summary

Daily Weather History Graph

Daily Weather History Graph

Search for Another Location

Airport or City:

Trip Planner

Search our weather history database for the weather conditions in past years. The results will help you decide how hot, cold, wet, or windy it might be!

Date:

Astronomy

Oct. 29, 2012 Rise Set
Actual Time 7:14 AM EDT 5:37 PM EDT
Civil Twilight 6:45 AM EDT 6:07 PM EDT
Nautical Twilight 6:11 AM EDT 6:40 PM EDT
Astronomical Twilight 5:38 AM EDT 7:13 PM EDT
Moon 5:26 PM EDT (10/29) 7:02 AM EDT (10/29)
Length of Visible Light 11h 21m
Length of Day
10h 22m
Full, 100% of the Moon is Illuminated
Oct 29
Full
Oct 29
Full
Nov 6
Last Quarter
Nov 13
New
Nov 20
First Quarter

Hourly Weather History & Observations

Time (EDT) Temp. Dew Point Humidity Pressure Visibility Wind Dir Wind Speed Gust Speed Precip Events Conditions
12:15 AM 48.2 °F 44.6 °F 87% 29.87 in 2.0 mi NNE 11.5 mph - N/A   Overcast
12:35 AM 48.2 °F 44.6 °F 87% 29.86 in 2.5 mi NNE 12.7 mph - N/A   Overcast
12:55 AM 48.2 °F 44.6 °F 87% 29.85 in 2.0 mi NNE 12.7 mph - N/A   Overcast
1:15 AM 48.2 °F 46.4 °F 93% 29.83 in 3.0 mi NNE 16.1 mph 23.0 mph N/A   Overcast
1:35 AM 48.2 °F 48.2 °F 100% 29.83 in 3.0 mi NNE 13.8 mph - N/A   Overcast
1:55 AM 48.2 °F 46.4 °F 93% 29.82 in 3.0 mi NNE 13.8 mph - N/A   Overcast
2:15 AM 50.0 °F 46.4 °F 87% 29.82 in 5.0 mi NNE 13.8 mph 17.3 mph 0.01 in   Overcast
2:35 AM 50.0 °F 44.6 °F 82% 29.81 in 3.0 mi NNE 15.0 mph - 0.01 in   Overcast
2:55 AM 50.0 °F 46.4 °F 87% 29.80 in 3.0 mi NE 13.8 mph 19.6 mph 0.01 in   Overcast
3:15 AM 50.0 °F 48.2 °F 94% 29.79 in 3.0 mi NE 16.1 mph 21.9 mph N/A   Overcast
3:35 AM 50.0 °F 46.4 °F 87% 29.79 in 3.0 mi NNE 16.1 mph 23.0 mph N/A   Overcast
3:55 AM 50.0 °F 46.4 °F 87% 29.78 in 2.5 mi NNE 16.1 mph - N/A   Overcast
4:15 AM 50.0 °F 46.4 °F 87% 29.77 in 3.0 mi NE 16.1 mph 20.7 mph N/A   Overcast
4:55 AM 50.0 °F 46.4 °F 87% 29.77 in 2.5 mi NE 13.8 mph - 0.01 in   Overcast
5:35 AM 51.8 °F 46.4 °F 82% 29.75 in 3.0 mi NE 16.1 mph 23.0 mph N/A   Overcast
5:55 AM 51.8 °F 46.4 °F 82% 29.75 in 3.0 mi NE 17.3 mph 24.2 mph N/A   Overcast
6:55 AM 51.8 °F 50.0 °F 94% 29.73 in 2.0 mi NE 16.1 mph 24.2 mph 0.01 in   Overcast
7:15 AM 51.8 °F 48.2 °F 88% 29.73 in 2.5 mi NE 17.3 mph 21.9 mph 0.01 in   Overcast
7:35 AM 51.8 °F 51.8 °F 100% 29.72 in 1.5 mi NE 17.3 mph 23.0 mph 0.01 in   Overcast
7:55 AM 51.8 °F 50.0 °F 94% 29.73 in 1.5 mi NE 16.1 mph 23.0 mph 0.01 in   Overcast
8:15 AM 53.6 °F 51.8 °F 94% 29.73 in 3.0 mi ENE 24.2 mph 31.1 mph N/A   Overcast
8:35 AM 53.6 °F 51.8 °F 94% 29.73 in 4.0 mi ENE 17.3 mph 34.5 mph N/A   Overcast
8:55 AM 53.6 °F 48.2 °F 82% 29.72 in 1.5 mi ENE 23.0 mph 35.7 mph N/A   Overcast
9:15 AM 53.6 °F 51.8 °F 94% 29.71 in 1.8 mi ENE 24.2 mph 36.8 mph 0.01 in   Overcast
9:35 AM 53.6 °F 48.2 °F 82% 29.70 in 2.0 mi ENE 25.3 mph 32.2 mph 0.01 in   Overcast
9:55 AM 53.6 °F 51.8 °F 94% 29.70 in 1.5 mi ENE 23.0 mph 29.9 mph 0.01 in   Overcast
10:35 AM 53.6 °F 51.8 °F 94% 29.67 in 2.0 mi ENE 19.6 mph 28.8 mph 0.01 in   Overcast
10:55 AM 55.4 °F 53.6 °F 94% 29.67 in 3.0 mi ENE 24.2 mph 35.7 mph 0.01 in   Overcast
11:15 AM 55.4 °F 51.8 °F 88% 29.66 in 4.0 mi ENE 28.8 mph 38.0 mph N/A   Overcast
11:35 AM 55.4 °F 53.6 °F 94% 29.65 in 5.0 mi ENE 26.5 mph 46.0 mph N/A   Overcast
11:55 AM 55.4 °F 51.8 °F 88% 29.65 in 4.0 mi ENE 24.2 mph 33.4 mph N/A   Overcast
12:15 PM 55.4 °F 51.8 °F 88% 29.63 in 3.0 mi ENE 26.5 mph 41.4 mph N/A   Overcast
12:35 PM 55.4 °F 53.6 °F 94% 29.62 in 2.0 mi ENE 28.8 mph 48.3 mph 0.01 in   Overcast
12:55 PM 55.4 °F 51.8 °F 88% 29.62 in 1.5 mi ENE 23.0 mph 40.3 mph 0.01 in   Overcast
1:35 PM 55.4 °F 51.8 °F 88% 29.59 in 3.0 mi ENE 34.5 mph 47.2 mph N/A   Overcast
1:55 PM 55.4 °F 51.8 °F 88% 29.57 in 5.0 mi ENE 29.9 mph 46.0 mph N/A   Overcast
2:15 PM 55.4 °F 53.6 °F 94% 29.57 in 5.0 mi ENE 26.5 mph 43.7 mph N/A   Overcast
2:35 PM 55.4 °F 51.8 °F 88% 29.55 in 2.0 mi ENE 28.8 mph 52.9 mph N/A   Overcast
2:55 PM 55.4 °F 53.6 °F 94% 29.54 in 7.0 mi ENE 28.8 mph 46.0 mph N/A   Overcast
3:15 PM 55.4 °F 53.6 °F 94% 29.53 in 8.0 mi ENE 28.8 mph 47.2 mph N/A   Overcast
4:15 PM 55.4 °F 51.8 °F 88% 29.48 in 1.8 mi ENE 40.3 mph 49.5 mph N/A   Overcast
4:36 PM 55.4 °F 51.8 °F 88% 29.48 in 2.0 mi ENE 25.3 mph 51.8 mph 0.01 in   Overcast
4:55 PM 55.4 °F 53.6 °F 94% 29.47 in 2.5 mi ENE 34.5 mph 49.5 mph 0.03 in   Overcast
5:15 PM 55.4 °F 53.6 °F 94% 29.47 in 5.0 mi ENE 28.8 mph 46.0 mph N/A   Overcast
5:35 PM 57.2 °F 51.8 °F 82% 29.47 in 9.0 mi ENE 28.8 mph 44.9 mph 0.01 in   Overcast
5:55 PM 57.2 °F 53.6 °F 88% 29.47 in 5.0 mi East 31.1 mph 44.9 mph 0.02 in   Overcast
6:15 PM 57.2 °F 53.6 °F 88% 29.46 in 3.0 mi East 24.2 mph 42.6 mph 0.04 in   Overcast
6:35 PM 57.2 °F 53.6 °F 88% 29.47 in 4.0 mi East 21.9 mph 38.0 mph 0.11 in   Overcast
6:55 PM 57.2 °F 53.6 °F 88% 29.45 in 3.0 mi ENE 25.3 mph 46.0 mph 0.18 in   Overcast
7:15 PM 57.2 °F 53.6 °F 88% 29.45 in 9.0 mi ENE 26.5 mph 49.5 mph 0.01 in   Overcast
7:35 PM 57.2 °F 53.6 °F 88% 29.44 in 4.0 mi East 24.2 mph 44.9 mph 0.08 in   Overcast
7:55 PM 57.2 °F 53.6 °F 88% 29.44 in 4.0 mi ENE 25.3 mph 42.6 mph 0.12 in   Overcast
8:15 PM 57.2 °F 53.6 °F 88% 29.43 in 5.0 mi East 21.9 mph 34.5 mph 0.03 in   Overcast
8:35 PM 57.2 °F 55.4 °F 94% 29.43 in 5.0 mi East 26.5 mph 40.3 mph 0.03 in   Overcast
8:55 PM 57.2 °F 55.4 °F 94% 29.41 in 4.0 mi East 25.3 mph 42.6 mph 0.03 in   Overcast
9:15 PM 57.2 °F 55.4 °F 94% 29.41 in 2.5 mi East 26.5 mph 43.7 mph 0.01 in   Overcast
9:35 PM 57.2 °F 55.4 °F 94% 29.41 in 2.5 mi ENE 26.5 mph 47.2 mph 0.02 in   Overcast
9:55 PM 57.2 °F 55.4 °F 94% 29.40 in 2.5 mi East 25.3 mph 42.6 mph 0.04 in   Overcast
10:15 PM 57.2 °F 53.6 °F 88% 29.39 in 3.0 mi East 26.5 mph 42.6 mph 0.03 in   Overcast
10:35 PM 57.2 °F 55.4 °F 94% 29.40 in 3.0 mi East 26.5 mph 41.4 mph 0.12 in   Overcast
10:55 PM 57.2 °F 55.4 °F 94% 29.41 in 5.0 mi East 25.3 mph 36.8 mph 0.19 in   Overcast
11:15 PM 59.0 °F 55.4 °F 88% 29.42 in 5.0 mi East 21.9 mph 36.8 mph 0.04 in   Overcast
11:35 PM 59.0 °F 55.4 °F 88% 29.41 in 5.0 mi East 19.6 mph 35.7 mph 0.07 in   Overcast
11:55 PM 59.0 °F 55.4 °F 88% 29.42 in 5.0 mi East 18.4 mph 42.6 mph 0.08 in   Overcast